Mon, 24 Jan 2022 04:05:33 UTC

Information for RPM ethtool-6-3.20090115git.fc11.x86_64.rpm

ID1019429
Nameethtool
Version6
Release3.20090115git.fc11
Epoch
Archx86_64
SummaryEthernet settings tool for PCI ethernet cards
DescriptionThis utility allows querying and changing settings such as speed, port, autonegotiation, PCI locations and checksum offload on many network devices, especially of ethernet devices.
Build Time2009-02-23 20:26:02 GMT
Size86,303
21774d2455fbb5b5ed68b8268d37cfe4
LicenseGPLv2
Buildrootdist-f11-build-355800-66342
Provides
ethtool = 6-3.20090115git.fc11
ethtool(x86-64) = 6-3.20090115git.fc11
Obsoletes No Obsoletes
Conflicts No Conflicts
Requires
libc.so.6()(64bit)
libc.so.6(GLIBC_2.2.5)(64bit)
libc.so.6(GLIBC_2.3.4)(64bit)
libc.so.6(GLIBC_2.4)(64bit)
rpmlib(CompressedFileNames) <= 3.0.4-1
rpmlib(FileDigests) <= 4.6.0-1
rpmlib(PayloadFilesHavePrefix) <= 4.0-1
rtld(GNU_HASH)
Recommends No Recommends
Suggests No Suggests
Supplements No Supplements
Enhances No Enhances
Files
1 through 11 of 11
Name ascending sort Size
/sbin/ethtool164,600
/usr/sbin/ethtool18
/usr/share/doc/ethtool-64,096
/usr/share/doc/ethtool-6/AUTHORS267
/usr/share/doc/ethtool-6/COPYING17,987
/usr/share/doc/ethtool-6/ChangeLog.git23,530
/usr/share/doc/ethtool-6/ChangeLog.old11,384
/usr/share/doc/ethtool-6/LICENSE100
/usr/share/doc/ethtool-6/NEWS3,938
/usr/share/doc/ethtool-6/README127
/usr/share/man/man8/ethtool.8.gz3,580
Component of
Page:
1 through 50 of 11207 >>>
Buildroot descending sort Created State
dist-f11-build-398694-67760 2009-03-07 20:46:38 expired
dist-f11-build-398688-67760 2009-03-07 20:43:55 expired
dist-f11-build-398681-67760 2009-03-07 20:41:03 expired
dist-f11-build-398679-67760 2009-03-07 20:39:46 expired
dist-f11-build-398675-67760 2009-03-07 20:35:52 expired
dist-f11-build-398670-67758 2009-03-07 20:25:04 expired
dist-f11-build-398667-67758 2009-03-07 20:23:18 expired
dist-f11-build-398661-67758 2009-03-07 20:22:50 expired
dist-f11-build-398660-67758 2009-03-07 20:21:31 expired
dist-f11-build-398650-67758 2009-03-07 20:13:51 expired
dist-f11-build-398649-67758 2009-03-07 20:12:16 expired
dist-f11-build-398647-67751 2009-03-07 19:51:15 expired
dist-f11-build-398642-67751 2009-03-07 19:48:04 expired
dist-f11-build-398638-67751 2009-03-07 19:43:45 expired
dist-f11-build-398630-67751 2009-03-07 19:35:00 expired
dist-f11-build-398622-67751 2009-03-07 19:27:36 expired
dist-f11-build-398617-67751 2009-03-07 19:25:36 expired
dist-f11-build-398596-67743 2009-03-07 18:14:25 expired
dist-f11-build-398580-67743 2009-03-07 18:10:29 expired
dist-f11-build-398577-67743 2009-03-07 18:09:28 expired
dist-f11-build-398570-67743 2009-03-07 18:07:03 expired
dist-f11-build-398561-67743 2009-03-07 18:04:22 expired
dist-f11-build-398555-67743 2009-03-07 18:01:59 expired
dist-f11-build-398552-67743 2009-03-07 17:50:11 expired
dist-f11-build-398548-67743 2009-03-07 17:43:34 expired
dist-f11-build-398539-67741 2009-03-07 17:38:21 expired
dist-f11-build-398533-67741 2009-03-07 17:32:54 expired
dist-f11-build-398520-67741 2009-03-07 17:29:50 expired
dist-f11-build-398518-67741 2009-03-07 17:29:09 expired
dist-f11-build-398498-67741 2009-03-07 17:12:30 expired
dist-f11-build-398493-67741 2009-03-07 16:56:03 expired
dist-f11-build-398481-67741 2009-03-07 16:44:17 expired
dist-f11-build-398475-67741 2009-03-07 16:33:24 expired
dist-f11-build-398474-67739 2009-03-07 16:03:00 expired
dist-f11-build-398473-67738 2009-03-07 15:22:59 expired
dist-f11-build-398471-67738 2009-03-07 15:19:24 expired
dist-f11-build-398467-67738 2009-03-07 15:13:34 expired
dist-f11-build-398461-67738 2009-03-07 15:05:14 expired
dist-f11-build-398453-67738 2009-03-07 15:02:42 expired
dist-f11-build-398451-67738 2009-03-07 15:01:21 expired
dist-f11-build-398444-67738 2009-03-07 14:55:51 expired
dist-f11-build-398432-67736 2009-03-07 14:34:03 expired
dist-f11-build-398431-67736 2009-03-07 14:32:24 expired
dist-f11-build-398430-67736 2009-03-07 14:31:30 expired
dist-f11-build-398429-67736 2009-03-07 14:29:50 expired
dist-f11-build-398421-67736 2009-03-07 14:27:38 expired
dist-f11-build-398414-67730 2009-03-07 13:58:01 expired
dist-f11-build-398409-67730 2009-03-07 13:40:00 expired
dist-f11-build-398407-67730 2009-03-07 13:37:10 expired
dist-f11-build-398401-67730 2009-03-07 13:36:55 expired